Crestview, FL

4:59 PM CDT on June 28, 2017 (GMT -0500)
Sikes

Weather History for KCEW - October, 2012

Change the Weather History Date:

Saturday, October 27, 2012

  Actual Average Record
Temperature  
Mean Temperature 60 °F -  
Max Temperature 68 °F 77 °F 87 °F (2010)
Min Temperature 53 °F 46 °F 33 °F (1982)
Degree Days  
Heating Degree Days 4    
Growing Degree Days 10 (Base 50)    
Moisture  
Dew Point 53 °F    
Average Humidity 79    
Maximum Humidity 94    
Minimum Humidity 65    
Precipitation  
Precipitation 0.00 in - - ()
Sea Level Pressure  
Sea Level Pressure 29.89 in    
Wind  
Wind Speed 10 mph (NNW)    
Max Wind Speed 16 mph    
Max Gust Speed 22 mph    
Visibility 10 miles    
Events      
Averages and records for this station are not official NWS values.
T = Trace of Precipitation, MM = Missing Value Source: NWS Daily Summary

Daily Weather History Graph

Daily Weather History Graph

Search for Another Location

Airport or City:

Trip Planner

Search our weather history database for the weather conditions in past years. The results will help you decide how hot, cold, wet, or windy it might be!

Date:

Astronomy

Oct. 27, 2012 Rise Set
Actual Time 6:57 AM CDT 6:01 PM CDT
Civil Twilight 6:32 AM CDT 6:26 PM CDT
Nautical Twilight 6:04 AM CDT 6:54 PM CDT
Astronomical Twilight 5:36 AM CDT 7:22 PM CDT
Moon 4:43 PM CDT (10/27) 4:57 AM CDT (10/27)
Length of Visible Light 11h 53m
Length of Day
11h 04m
Waxing Gibbous, 96% of the Moon is Illuminated
Oct 27
Waxing Gibbous
Oct 29
Full
Nov 6
Last Quarter
Nov 13
New
Nov 20
First Quarter

Hourly Weather History & Observations

Time (CDT) Temp. Dew Point Humidity Pressure Visibility Wind Dir Wind Speed Gust Speed Precip Events Conditions
12:53 AM 68.0 °F 61.0 °F 78% 29.88 in 10.0 mi NNW 6.9 mph - N/A   Clear
1:53 AM 66.0 °F 61.0 °F 84% 29.88 in 10.0 mi NNW 5.8 mph - N/A   Clear
2:53 AM 64.9 °F 62.1 °F 90% 29.86 in 9.0 mi NNW 10.4 mph - N/A   Clear
3:25 AM 64.4 °F 62.6 °F 94% 29.87 in 9.0 mi North 8.1 mph - N/A   Partly Cloudy
3:53 AM 64.9 °F 61.0 °F 87% 29.86 in 8.0 mi NNW 5.8 mph - N/A   Mostly Cloudy
4:53 AM 63.0 °F 57.9 °F 84% 29.88 in 10.0 mi NNW 15.0 mph 20.7 mph N/A   Overcast
5:53 AM 61.0 °F 57.0 °F 87% 29.90 in 10.0 mi NW 11.5 mph - N/A   Overcast
6:53 AM 59.0 °F 54.0 °F 83% 29.91 in 9.0 mi NW 8.1 mph - N/A   Overcast
7:53 AM 57.9 °F 53.1 °F 84% 29.93 in 9.0 mi NNW 10.4 mph - N/A   Overcast
8:53 AM 57.9 °F 53.1 °F 84% 29.93 in 9.0 mi North 8.1 mph - N/A   Overcast
9:53 AM 59.0 °F 53.1 °F 81% 29.93 in 10.0 mi NW 9.2 mph - N/A   Overcast
10:53 AM 59.0 °F 52.0 °F 78% 29.94 in 8.0 mi NNW 15.0 mph 19.6 mph N/A   Overcast
11:29 AM 59.0 °F 51.8 °F 77% 29.93 in 9.0 mi NNW 13.8 mph - N/A   Overcast
11:53 AM 60.1 °F 51.1 °F 72% 29.92 in 9.0 mi NNW 11.5 mph - N/A   Overcast
12:53 PM 62.1 °F 52.0 °F 70% 29.89 in 10.0 mi North 9.2 mph 18.4 mph N/A   Overcast
1:11 PM 62.6 °F 51.8 °F 68% 29.89 in 10.0 mi NNW 12.7 mph 18.4 mph N/A   Overcast
1:53 PM 64.0 °F 52.0 °F 65% 29.86 in 10.0 mi North 9.2 mph 17.3 mph N/A   Overcast
2:53 PM 63.0 °F 51.1 °F 65% 29.86 in 10.0 mi NW 15.0 mph 20.7 mph N/A   Overcast
3:53 PM 60.1 °F 51.1 °F 72% 29.86 in 10.0 mi NW 13.8 mph 20.7 mph N/A   Overcast
4:53 PM 57.9 °F 50.0 °F 75% 29.86 in 10.0 mi NNW 15.0 mph 21.9 mph N/A   Overcast
5:46 PM 55.4 °F 48.2 °F 77% 29.87 in 10.0 mi NNW 12.7 mph 21.9 mph N/A   Overcast
5:53 PM 55.9 °F 48.9 °F 77% 29.87 in 10.0 mi NNW 13.8 mph 20.7 mph N/A   Overcast
6:53 PM 54.0 °F 48.0 °F 80% 29.90 in 10.0 mi NNW 16.1 mph - N/A   Overcast
7:53 PM 53.1 °F 48.0 °F 83% 29.91 in 10.0 mi NNW 15.0 mph 21.9 mph N/A   Overcast
8:53 PM 53.1 °F 48.0 °F 83% 29.92 in 10.0 mi NNW 10.4 mph 21.9 mph N/A   Overcast
9:53 PM 53.1 °F 48.0 °F 83% 29.92 in 10.0 mi NNW 9.2 mph - N/A   Overcast
11:53 PM 53.1 °F 46.9 °F 80% 29.91 in 10.0 mi North 6.9 mph 19.6 mph N/A   Overcast